Location: Cape Cod Imaging Station
(41.7417°N, 70.1583°W)
Time: 20:22:29
(UTC-04:00)

N. Korean satellite - Visible Passes

Search period start: 23 October 2017 00:00
Search period end: 02 November 2017 00:00
Orbit: 459 x 517 km, 97.2° (Epoch: 23 October)

Date Brightness Start Highest point End Pass type
(mag) Time Alt. Az. Time Alt. Az. Time Alt. Az.
23 Oct 7.5 19:01:46 10° S 19:05:09 48° W 19:08:32 10° NNW visible
24 Oct 10.2 06:30:09 10° ENE 06:31:41 12° E 06:33:15 10° ESE visible
24 Oct 6.4 18:38:18 10° SSE 18:41:47 78° ENE 18:45:15 10° N visible
25 Oct 7.0 18:15:16 10° SE 18:18:29 36° ENE 18:21:43 10° N visible
25 Oct 10.0 19:50:45 10° WSW 19:52:11 12° W 19:53:37 10° WNW visible
26 Oct 9.0 19:25:50 10° SSW 19:28:40 23° W 19:31:29 10° NW visible
27 Oct 7.6 19:01:51 10° S 19:05:12 47° W 19:08:34 10° NNW visible
28 Oct 10.2 06:30:06 10° ENE 06:31:46 13° E 06:33:26 10° ESE visible
28 Oct 6.3 18:38:22 10° SSE 18:41:49 79° ENE 18:45:17 10° N visible
29 Oct 7.0 18:15:19 10° SE 18:18:31 37° ENE 18:21:44 10° N visible
29 Oct 10.0 19:50:51 10° WSW 19:52:13 12° W 19:53:34 10° WNW visible
30 Oct 9.0 19:25:52 10° SSW 19:28:40 23° W 19:31:28 10° NW visible
31 Oct 7.6 19:01:52 10° S 19:05:12 46° W 19:08:33 10° NNW visible
01 Nov 10.1 06:30:00 10° ENE 06:31:46 13° E 06:33:33 10° ESE visible
01 Nov 6.3 18:38:21 10° SSE 18:41:47 80° ENE 18:45:15 10° N visible
